Theta_e
367 369 370 369 369 369 365 357 355 356 355 354 355 356 356 357 356 355 354 355 354 354 354 354 354 354 353 353 352 350 350 350 349 349 350 350 348 344 343 343 342 343 343 345 345 346 347 347 345 342 340 338 337 335 333 332 331 329 327 325 323 321 321
367 368 369 368 369 370 363 356 356 357 355 355 355 356 357 356 354 355 354 354 355 354 354 354 354 354 353 352 352 351 349 349 348 348 348 349 347 345 344 343 343 343 344 346 346 347 347 346 346 343 340 338 336 334 332 329 328 326 325 323 322 323 323
364 364 366 364 366 366 361 357 357 356 355 354 355 355 355 355 354 354 355 354 355 354 354 354 354 353 352 351 350 349 348 348 348 347 347 347 347 345 345 344 344 345 346 347 347 346 346 346 346 343 339 338 335 332 330 328 327 325 323 322 322 323 324
365 364 362 362 363 361 357 355 356 358 356 354 355 355 354 354 354 354 355 355 355 354 354 354 353 352 351 350 350 348 348 347 347 347 346 346 346 346 346 345 345 346 347 348 348 346 345 346 345 342 338 337 334 331 329 329 327 325 325 326 325 324 324
366 365 362 362 364 362 357 354 354 356 356 356 356 355 354 354 355 355 355 355 354 354 355 354 352 351 350 350 349 348 347 347 348 347 346 346 346 346 346 346 346 347 347 348 347 346 346 346 345 341 336 335 333 330 330 329 327 325 326 328 328 327 326
366 365 365 363 363 364 357 350 351 354 354 356 356 355 356 355 355 355 355 355 355 355 355 354 351 351 350 350 349 348 347 347 347 346 346 346 346 346 347 347 347 347 347 348 347 347 346 346 344 340 335 334 332 330 329 329 328 326 325 326 327 329 328
366 364 364 361 360 360 354 347 349 351 352 354 355 354 356 355 355 356 355 355 355 354 353 352 350 351 351 350 348 347 346 346 345 346 346 346 345 346 346 346 346 347 346 346 346 347 346 345 343 340 336 335 334 331 329 329 329 328 327 326 327 327 327
363 363 362 359 356 354 350 345 346 349 350 352 352 352 353 355 355 355 356 355 354 353 352 351 350 350 351 349 347 346 345 345 345 346 346 346 345 346 346 345 346 346 346 346 346 346 347 345 342 339 337 336 334 330 329 330 329 329 328 327 327 326 324
361 361 359 355 352 349 345 345 345 346 348 348 349 350 351 353 354 355 356 355 354 352 350 350 350 350 349 347 346 345 345 345 345 345 345 345 346 345 346 346 346 346 346 346 345 345 346 345 342 339 337 334 332 330 330 330 329 329 328 328 328 324 319
359 357 356 353 351 347 343 344 345 344 346 347 348 350 351 351 353 355 356 355 355 353 351 351 350 349 349 347 346 345 345 345 345 345 345 345 345 345 344 344 344 346 346 345 345 344 344 344 342 338 335 332 331 331 330 329 328 328 328 326 323 319 315
357 355 353 351 352 351 348 347 345 344 346 346 348 349 349 350 352 354 355 355 355 353 352 351 349 350 350 347 346 345 345 346 346 345 345 344 343 342 341 341 342 345 346 346 345 344 343 343 340 336 333 332 331 330 329 329 328 327 326 323 320 316 314
355 354 353 352 355 356 353 349 345 344 345 345 347 348 348 349 351 353 354 354 354 352 349 348 347 348 350 347 345 345 345 345 345 345 343 341 340 339 341 342 342 344 346 345 345 343 343 341 337 334 333 332 331 330 329 328 326 325 324 320 319 317 314
356 355 355 356 357 357 355 352 347 344 344 344 346 347 347 349 351 353 354 353 353 351 348 346 346 348 349 347 345 345 345 345 345 343 341 339 339 341 342 343 343 345 346 345 345 343 343 341 337 333 332 331 330 329 327 326 326 324 322 320 321 320 319
359 358 358 359 360 358 358 357 350 344 343 344 345 346 347 349 351 352 353 354 353 352 348 346 346 348 348 347 345 345 346 345 344 341 340 339 341 342 343 344 345 345 345 344 344 343 340 339 337 334 332 330 328 327 326 326 325 321 319 322 325 325 325
360 360 362 363 362 360 359 359 352 344 343 344 345 346 347 349 351 351 352 353 353 352 349 346 347 347 348 347 346 346 346 345 343 341 341 341 342 343 344 344 345 345 344 342 342 341 339 337 336 334 331 329 327 326 326 324 321 317 319 324 327 327 327
363 362 365 364 362 361 359 355 349 343 344 345 344 345 346 347 350 350 351 352 352 352 350 348 347 348 347 347 347 347 347 344 342 341 341 341 341 342 343 344 345 345 344 342 340 339 338 336 334 332 329 328 327 326 324 320 315 313 316 321 324 324 325
367 366 367 363 360 361 358 353 347 343 344 345 344 345 346 346 348 348 349 350 351 350 350 347 347 348 348 347 347 347 347 345 343 342 341 340 341 342 343 344 345 345 344 343 341 339 337 335 333 331 329 328 327 324 319 315 313 314 316 318 318 318 319
371 368 368 366 363 362 361 357 351 345 344 344 345 346 345 345 347 347 347 349 348 348 348 346 348 349 348 348 348 348 348 346 345 344 341 340 340 342 342 344 346 345 344 343 342 339 336 334 332 330 328 327 324 319 315 315 316 319 320 319 317 316 315
366 367 369 368 366 367 363 357 350 345 345 345 345 346 347 346 347 347 347 348 347 347 348 347 348 349 348 348 348 348 348 347 346 345 342 341 341 342 342 344 345 346 344 343 341 339 336 333 331 329 327 323 319 316 316 318 320 321 321 320 318 315 313
365 368 368 366 367 365 354 347 346 347 347 347 346 346 347 346 347 347 347 348 348 347 347 348 349 349 347 348 347 347 348 348 347 345 343 343 344 345 344 344 345 345 343 341 340 338 335 333 330 328 324 320 317 316 317 321 323 323 322 320 318 315 314
370 372 374 374 373 363 348 343 347 348 347 348 347 347 347 347 348 347 348 348 348 347 347 348 348 348 348 348 347 346 347 346 344 343 343 343 345 347 346 344 344 343 341 340 338 335 334 332 330 327 322 319 318 318 319 323 326 326 324 320 317 315 314
377 378 375 369 362 354 346 345 348 347 346 347 347 347 348 348 347 348 347 348 348 348 348 348 349 348 347 347 346 344 345 345 344 344 344 343 345 348 346 343 342 341 340 339 336 333 332 331 329 325 321 319 319 319 321 325 326 327 326 321 316 314 315
362 363 357 351 347 347 347 346 347 346 346 347 347 347 347 347 347 348 348 348 348 347 348 348 348 348 347 347 346 344 345 347 347 346 345 345 347 347 344 343 342 339 337 337 335 332 331 330 326 323 320 319 319 320 322 325 326 327 326 320 314 315 317
344 345 347 345 346 347 347 347 348 347 348 348 348 348 348 347 348 347 348 348 348 347 347 347 348 348 347 347 347 346 347 347 346 345 345 345 347 345 343 342 341 336 334 335 334 331 330 328 325 321 319 319 319 320 322 324 326 327 325 318 314 316 318
342 343 346 346 347 348 347 348 348 348 349 348 348 348 348 348 347 347 348 348 347 346 346 346 346 347 347 347 346 345 346 346 345 345 345 344 345 345 344 343 340 335 332 333 332 330 328 327 324 320 318 320 321 321 322 322 325 327 323 316 315 318 318
343 344 347 348 348 349 348 348 348 349 349 348 348 348 347 347 348 348 348 349 348 347 347 346 346 346 345 345 345 343 344 345 345 345 344 344 345 344 343 343 339 334 332 331 330 329 327 324 321 319 320 323 324 324 324 325 327 326 320 316 316 319 319
346 348 349 350 351 350 349 349 349 350 350 350 350 348 348 348 348 347 348 349 349 348 349 348 347 346 345 344 343 343 344 344 344 344 343 342 344 344 343 342 339 335 332 330 329 327 325 321 320 322 324 325 326 326 326 327 327 323 317 316 318 319 319
352 354 354 355 356 355 354 352 352 352 352 352 351 349 349 349 348 348 349 350 349 349 349 349 348 347 344 342 343 343 343 342 343 343 342 343 344 344 343 340 337 334 331 329 329 326 321 320 322 324 325 325 326 327 327 327 326 321 316 317 318 319 319
354 354 355 358 357 357 357 355 355 355 354 354 352 351 350 349 349 349 349 349 349 349 349 349 347 345 342 341 342 343 342 341 342 342 342 343 343 342 340 338 335 332 330 329 327 323 320 323 325 325 326 326 326 328 328 328 325 321 317 318 319 319 320
351 352 354 355 354 354 354 352 352 354 354 354 354 352 351 350 349 349 350 349 347 346 349 350 347 343 342 342 343 344 342 340 341 341 341 343 343 340 338 335 332 330 328 327 323 320 320 325 326 325 325 326 327 329 329 324 320 318 318 318 319 319 320
350 351 352 352 350 350 348 348 349 350 351 353 354 353 352 351 349 349 349 349 346 346 349 351 348 345 344 344 344 343 342 341 341 341 341 343 343 341 337 333 330 328 325 323 321 318 320 322 323 323 324 325 327 329 326 318 314 316 318 318 319 320 320
350 350 350 349 348 347 346 347 348 348 349 351 353 354 353 351 350 349 349 349 348 347 349 350 350 347 346 346 344 343 342 343 342 341 342 343 344 343 339 334 329 326 324 322 321 320 321 321 321 322 324 326 329 327 321 314 314 316 318 319 319 320 321
349 349 348 348 347 347 347 347 347 347 348 348 350 353 354 353 351 350 349 350 350 349 348 349 349 347 346 347 347 344 342 343 342 342 343 343 343 344 340 333 328 327 324 322 321 322 323 322 322 322 323 327 328 323 316 313 315 317 318 319 320 320 320
348 348 347 348 347 348 348 347 347 347 347 348 349 350 352 353 352 351 349 350 349 348 347 346 347 347 347 347 348 346 345 343 343 343 344 343 343 342 338 333 330 328 325 322 322 324 324 324 325 324 324 327 326 320 314 313 316 318 319 320 320 320 319
348 349 348 348 348 348 347 347 347 347 348 349 350 350 351 353 353 351 350 349 349 347 345 344 344 345 344 344 345 345 344 343 343 344 343 343 341 338 335 333 331 329 327 325 323 323 322 324 325 325 326 327 324 317 313 315 317 319 319 320 320 319 319
348 348 348 348 347 347 347 347 347 348 348 348 348 348 350 352 352 352 350 349 350 348 344 344 344 343 341 341 342 342 342 341 342 342 341 339 338 335 333 332 331 330 328 323 319 317 316 318 323 326 327 325 320 315 314 316 319 319 320 320 320 319 319
347 348 348 347 346 346 347 347 347 347 347 346 346 346 348 351 352 352 351 350 349 348 346 346 346 345 343 341 340 341 341 341 342 342 340 338 336 336 333 331 329 326 321 316 313 312 313 317 322 325 323 319 315 314 316 319 319 319 320 321 320 319 320
348 348 346 346 346 345 345 345 345 345 345 344 345 344 346 349 351 351 351 349 347 346 347 347 347 347 345 343 342 342 341 341 342 343 342 340 338 335 332 330 325 318 313 313 314 314 316 320 321 319 316 314 314 317 318 319 319 319 320 320 320 320 320
Wind_Speed
2 3 4 4 4 5 6 8 10 11 11 11 10 9 8 8 9 11 11 11 11 10 9 8 6 5 5 5 5 5 4 4 4 4 3 4 4 5 6 6 6 5 6 5 4 5 5 5 4 5 6 7 7 7 7 7 8 9 9 9 9 8 8
3 4 4 4 5 5 5 7 7 6 6 8 8 8 9 10 11 11 10 10 10 10 9 8 6 5 5 5 5 4 4 3 4 6 5 4 4 4 4 4 4 5 4 3 2 3 2 2 2 3 4 5 6 6 6 8 9 10 10 9 8 8 7
4 5 5 5 5 4 3 4 4 4 5 6 7 8 9 11 12 11 10 10 10 9 9 7 6 6 6 6 5 4 3 3 4 5 4 3 3 3 3 3 3 3 2 0 2 2 1 1 0 2 3 4 5 6 6 8 9 11 12 11 10 9 8
5 6 5 5 4 3 3 3 3 4 5 7 7 8 9 10 10 10 9 9 10 10 8 7 7 7 7 6 5 4 3 3 4 4 3 3 3 2 2 1 1 1 1 2 3 2 1 2 2 3 4 4 5 5 6 7 8 10 12 13 13 12 10
6 6 5 5 4 3 3 1 2 3 5 7 7 7 8 10 10 9 9 9 10 9 7 7 8 8 7 5 4 4 3 2 2 2 1 3 3 2 1 1 2 2 3 3 3 3 2 2 3 5 5 5 5 5 5 5 6 6 8 11 13 13 12
6 6 5 4 3 3 2 1 1 2 5 6 7 7 8 9 10 10 10 10 10 8 7 7 8 8 6 4 4 3 2 2 2 1 3 4 3 2 1 2 3 4 4 4 4 3 3 3 4 5 6 5 3 3 4 4 4 4 5 7 10 11 11
6 6 5 4 3 2 1 3 2 3 5 7 9 9 8 9 10 10 11 11 11 10 9 9 9 8 5 4 3 3 2 2 1 2 4 5 4 3 3 4 5 5 5 4 4 5 5 4 5 6 6 4 2 3 3 3 3 4 5 6 7 9 9
7 6 5 3 0 1 2 3 2 4 7 8 9 9 9 10 10 10 10 10 11 11 11 11 10 8 6 5 4 3 4 5 5 5 5 5 3 3 2 3 4 5 4 3 3 5 5 4 5 6 5 4 4 4 3 1 2 4 5 6 7 9 9
6 5 3 2 3 3 4 3 2 5 7 8 7 8 9 10 10 11 11 9 8 9 9 10 9 8 6 5 4 5 7 7 7 6 5 4 3 2 1 1 2 3 3 3 3 4 3 3 4 4 4 5 5 4 2 1 1 3 5 6 9 10 11
5 3 3 5 4 3 4 3 4 5 7 7 7 8 9 10 11 11 10 10 9 7 6 6 6 7 7 6 6 8 9 9 8 7 5 4 3 1 1 1 2 2 2 2 3 2 1 2 4 4 5 6 5 4 3 1 1 3 6 8 11 12 13
4 3 4 5 4 3 3 3 3 5 8 9 8 8 9 9 10 10 10 10 9 8 6 6 6 7 8 7 8 10 10 9 8 7 5 3 2 2 3 3 3 3 2 1 2 2 1 1 4 6 7 6 4 4 2 1 3 5 8 11 13 14 15
3 3 5 4 2 2 2 3 4 8 10 9 7 7 8 9 9 8 9 9 9 8 8 7 8 8 9 9 10 11 11 9 8 6 4 3 4 4 5 6 5 3 2 0 1 2 1 1 4 6 6 5 4 3 2 3 6 9 11 13 14 14 13
3 4 4 2 0 3 4 4 6 9 7 5 6 6 7 8 7 6 8 9 9 9 9 8 8 8 10 12 12 12 11 9 7 5 4 4 5 5 6 7 5 3 2 2 1 0 0 1 4 5 5 4 3 2 3 5 8 11 13 13 13 12 11
4 4 3 2 1 3 5 5 6 7 4 3 6 7 8 8 7 6 8 9 9 10 10 9 8 9 12 13 13 12 10 8 6 5 5 5 6 7 7 7 5 3 3 3 2 2 1 2 3 4 5 4 3 3 5 7 10 12 13 12 11 11 11
4 4 3 3 3 4 6 7 6 4 3 5 7 8 8 9 9 8 8 9 10 11 10 8 7 9 12 13 12 11 10 9 8 7 6 6 6 6 5 5 4 4 4 4 3 2 2 3 3 4 4 3 3 4 7 10 12 12 11 10 11 11 11
3 2 4 5 4 5 6 7 6 3 4 7 9 9 9 10 10 8 8 10 11 12 12 10 8 8 11 12 11 10 10 10 9 8 6 5 5 4 3 3 3 3 4 4 3 3 3 4 4 5 4 3 4 6 9 11 12 11 10 10 11 12 12
4 4 5 5 5 5 7 7 6 4 6 10 11 11 11 10 9 8 8 9 11 12 12 11 8 7 10 12 11 10 11 11 10 9 7 4 3 2 2 2 3 3 3 3 2 3 4 5 5 5 4 3 5 8 10 10 10 11 11 11 12 12 13
4 5 5 5 5 6 7 7 6 6 8 11 13 12 11 10 9 7 7 8 8 10 11 10 7 6 8 10 10 12 12 11 10 9 7 4 3 2 2 2 2 1 1 1 3 5 5 5 6 5 4 4 6 8 8 9 10 11 12 12 12 13 13
4 5 5 5 5 6 6 7 8 9 10 11 13 12 12 11 8 7 6 6 6 8 9 8 6 6 8 9 10 11 12 12 12 10 7 5 4 4 3 2 1 1 1 2 4 6 7 7 6 5 4 5 7 7 6 7 9 10 11 12 13 14 14
4 5 5 5 5 5 6 9 11 12 12 12 12 12 11 10 8 5 5 5 5 6 7 6 6 8 9 10 10 10 10 11 12 10 7 5 5 5 4 2 2 1 1 2 5 7 8 8 6 4 4 5 6 5 5 6 8 10 11 13 14 15 14
5 5 5 5 5 6 7 9 11 13 12 12 10 10 10 10 8 5 5 5 4 5 6 6 7 8 9 9 8 6 5 7 8 8 7 7 6 6 4 3 2 1 0 2 6 8 8 8 5 4 4 5 5 3 3 5 7 10 11 13 14 14 14
4 4 4 5 5 6 7 7 9 11 12 12 11 10 11 11 9 6 4 4 3 4 5 6 7 8 7 7 6 4 4 8 11 11 11 10 9 7 5 4 3 1 1 3 7 9 8 7 5 3 3 3 3 2 3 5 7 9 11 13 14 14 13
5 5 6 6 6 6 7 7 8 10 11 11 11 11 11 10 8 5 3 3 3 4 5 7 8 7 7 6 5 4 7 10 12 13 12 11 10 7 5 4 2 1 2 4 8 9 7 5 4 3 2 2 2 2 4 6 7 9 11 13 13 12 12
6 7 9 8 7 6 7 8 8 8 9 10 10 10 10 9 7 4 3 3 4 5 6 6 7 6 6 6 5 5 7 8 9 10 12 11 8 6 4 3 2 2 2 4 7 8 6 4 3 1 1 1 1 2 5 6 7 9 12 12 12 11 12
5 6 7 7 6 6 7 8 8 8 9 10 10 9 8 7 6 4 3 3 4 5 6 6 5 6 6 6 6 5 6 7 6 7 10 9 7 5 4 3 2 2 2 4 6 7 6 3 2 1 2 2 1 3 6 7 8 10 11 11 10 11 13
3 3 3 3 4 5 6 7 7 9 10 11 10 9 6 5 5 4 2 2 4 6 7 6 5 5 5 5 5 4 5 5 4 5 7 9 8 6 6 4 3 2 3 4 6 7 5 3 2 2 3 3 4 5 7 9 10 10 10 9 8 11 12
6 5 4 2 3 5 6 7 7 8 9 9 8 7 6 5 4 4 2 1 3 7 9 7 5 4 4 4 4 3 3 4 5 4 7 10 9 8 8 6 3 3 4 5 8 7 4 4 4 5 5 5 6 7 8 8 8 9 8 7 8 10 11
11 10 8 7 7 8 8 9 9 9 8 8 7 7 6 5 5 5 4 1 2 7 11 6 4 6 5 2 2 2 3 4 6 5 7 10 10 9 8 6 3 3 5 7 8 7 5 6 7 7 7 7 8 8 7 6 6 7 5 5 7 9 10
11 10 11 12 12 11 12 13 14 13 10 8 7 6 5 5 5 7 7 4 3 6 12 7 3 4 3 1 1 2 1 3 5 6 7 9 9 8 7 5 4 5 6 8 9 8 8 9 9 8 8 8 8 7 6 5 6 6 4 4 7 10 10
11 11 12 14 15 15 17 18 18 18 16 12 9 6 5 5 5 7 10 10 8 5 11 10 5 3 1 1 0 0 0 2 4 4 5 7 9 7 6 5 6 7 9 10 10 9 9 10 9 9 10 10 8 7 6 6 7 6 4 4 7 10 10
10 12 13 15 16 17 19 19 19 20 20 18 14 10 6 5 6 7 10 10 7 4 5 8 5 3 2 1 2 2 2 2 2 3 5 7 8 7 6 6 9 11 11 10 9 8 9 10 10 11 11 10 9 8 7 7 7 5 4 5 8 11 11
11 13 14 14 15 17 18 18 19 19 19 19 18 14 11 7 6 7 6 4 4 10 6 2 2 4 5 5 4 4 4 3 2 3 6 7 7 7 7 10 13 13 11 9 8 8 9 11 12 12 11 11 9 8 8 8 6 4 4 6 9 11 11
9 10 12 12 13 15 17 18 18 17 17 17 16 15 14 10 7 7 2 4 5 12 15 13 11 11 12 12 11 10 9 8 6 5 7 8 8 9 11 14 15 13 10 9 9 10 11 13 13 14 13 12 11 9 8 7 5 5 4 6 9 11 11
8 10 12 13 14 16 17 17 17 15 15 15 13 12 13 11 8 6 2 3 4 7 12 15 14 12 11 13 15 14 12 11 10 9 9 10 11 13 15 16 15 12 10 9 10 12 13 14 14 14 14 13 12 10 8 6 5 4 4 6 8 10 11
11 12 13 14 15 17 17 17 16 16 15 15 13 12 12 11 7 4 2 2 3 6 7 11 14 12 10 8 8 9 9 10 10 10 11 13 15 16 16 15 14 11 10 10 10 10 10 11 11 12 11 11 11 9 7 6 5 3 3 6 8 10 11
14 15 15 15 16 17 17 17 16 16 16 15 14 13 13 11 8 4 1 2 3 6 7 5 6 9 9 6 4 5 7 8 9 10 13 17 18 17 15 13 12 11 10 9 8 8 7 7 7 6 6 8 9 7 6 6 5 1 3 6 8 10 10
15 15 15 16 16 17 17 17 16 15 15 14 13 13 13 12 10 6 2 3 5 5 6 7 6 5 6 6 8 11 12 12 13 14 17 20 19 17 14 12 11 10 9 7 6 6 5 4 4 5 6 7 7 6 7 6 4 1 3 7 8 8 8
15 15 15 15 16 16 15 15 15 14 13 12 12 12 13 13 13 10 5 1 5 7 8 9 10 9 7 6 8 11 12 13 14 16 18 19 18 17 15 14 13 10 8 7 6 4 3 4 6 7 6 6 6 7 7 5 3 2 3 6 7 6 5
Wind_Direction
192 215 222 213 210 208 208 210 209 208 207 199 190 182 172 160 148 141 137 137 139 138 142 145 138 131 129 127 126 123 118 103 74 57 77 106 109 115 120 119 121 121 117 112 93 67 49 43 54 63 72 81 88 92 87 77 66 56 48 39 40 49 56
208 222 233 228 225 229 230 227 225 226 221 209 197 185 173 162 151 146 144 145 145 145 149 152 146 143 145 141 136 129 118 96 60 48 64 99 112 124 129 125 131 135 129 118 68 40 33 29 44 68 94 99 99 99 86 75 66 57 51 44 43 48 49
224 231 233 234 235 244 254 252 249 246 237 224 210 195 179 164 157 154 153 153 153 152 152 151 150 150 144 139 133 121 106 83 53 44 61 96 112 135 141 136 147 156 157 255 337 356 1 309 236 123 128 120 112 105 84 71 63 57 55 51 48 44 36
237 238 241 249 254 268 274 266 263 251 237 226 215 205 188 172 166 163 162 162 159 159 156 149 147 145 139 132 118 97 85 67 47 49 83 118 124 139 156 168 179 208 269 312 324 326 324 274 212 162 153 141 123 109 86 72 65 61 58 54 50 42 31
251 251 254 257 257 267 267 261 288 272 250 238 228 219 205 191 184 174 169 169 165 164 160 149 148 146 136 121 101 83 65 41 16 19 132 155 149 152 186 253 266 281 292 309 319 314 297 257 206 173 166 150 128 117 100 83 73 65 54 48 46 39 27
251 251 247 245 246 251 252 67 24 285 269 262 251 245 236 222 210 189 173 170 171 172 164 155 153 147 131 110 93 68 40 12 315 277 201 184 181 197 239 276 285 291 294 295 294 290 280 247 205 178 165 149 130 130 113 91 80 64 39 35 37 32 21
242 245 241 234 232 247 312 52 21 281 271 270 266 266 273 269 247 216 189 176 174 174 167 160 156 145 127 105 84 54 60 93 89 119 167 185 207 245 266 279 284 287 290 287 274 270 266 235 197 174 163 158 161 149 122 88 75 53 29 25 24 19 8
237 241 243 233 158 358 19 38 359 280 262 265 277 285 291 292 275 246 222 198 181 174 166 159 154 145 131 111 90 81 110 122 114 119 151 180 207 234 253 271 280 283 283 279 264 264 261 226 190 175 173 183 184 162 136 84 55 31 13 10 8 360 351
240 245 269 21 53 34 24 21 318 272 263 264 278 287 288 292 285 263 246 231 206 185 168 157 152 149 143 129 115 122 135 136 129 134 154 172 184 192 208 274 292 298 291 276 264 267 256 214 196 187 187 187 180 172 166 159 36 5 356 354 351 345 338
250 266 345 36 40 23 20 353 303 283 279 270 260 261 270 285 286 268 254 250 241 222 196 179 175 170 164 152 141 144 149 147 142 147 158 161 159 148 56 1 346 339 321 288 266 259 223 208 212 199 188 183 176 173 169 155 24 358 352 348 344 338 333
274 317 25 42 22 3 6 325 297 276 266 259 246 246 262 281 285 271 255 250 249 243 232 226 219 202 185 168 159 159 158 155 155 157 155 146 121 72 40 28 23 17 355 297 241 218 200 212 206 194 187 182 172 162 149 75 10 357 351 348 343 339 336
303 359 39 48 11 320 284 266 249 241 245 252 253 251 263 276 280 274 257 240 237 236 231 235 240 221 195 180 171 170 169 166 163 156 145 125 92 58 38 34 35 39 45 40 204 208 234 217 193 191 188 176 161 144 88 24 5 356 352 350 347 346 348
341 35 56 59 290 253 258 252 240 241 245 261 266 254 253 259 263 264 252 234 226 226 223 228 239 225 199 189 185 183 180 172 163 150 138 114 84 58 40 38 39 44 54 42 29 27 251 196 187 185 179 165 149 105 41 15 1 356 354 353 354 358 2
4 37 34 350 292 254 259 255 247 248 245 250 257 252 243 240 239 238 236 230 222 216 216 221 227 217 200 193 192 191 183 171 160 145 127 102 81 63 49 44 45 49 50 37 25 46 82 134 168 170 162 152 122 61 27 9 2 0 360 1 6 9 7
5 21 338 293 273 260 260 258 255 248 232 239 246 249 241 228 224 224 224 225 220 211 208 211 213 209 202 197 197 195 183 167 155 142 126 110 94 78 61 55 57 54 48 48 56 82 105 123 145 155 153 137 84 38 18 8 5 5 5 6 9 6 0
331 306 271 260 259 261 258 261 266 261 245 246 244 245 244 233 224 221 218 221 219 212 209 211 214 213 207 203 199 189 175 165 160 157 152 138 120 106 88 81 85 72 56 63 81 105 126 138 145 148 144 114 53 24 12 9 10 12 13 11 7 1 355
279 264 261 261 261 266 268 271 274 257 243 249 252 251 252 249 241 233 229 227 221 216 216 221 229 230 218 210 201 188 180 179 180 181 182 172 146 130 117 105 105 90 69 78 113 142 148 152 152 144 128 79 35 18 14 20 29 34 32 24 14 4 356
272 270 266 267 264 265 270 274 274 261 248 251 255 256 259 263 261 255 252 248 238 231 228 231 238 236 221 210 201 195 193 193 194 196 202 217 223 206 186 150 130 115 101 124 157 168 165 161 154 138 108 56 30 23 28 43 49 44 36 25 13 2 353
279 275 266 264 263 265 268 272 276 274 267 262 260 262 266 269 270 273 275 273 261 243 234 235 238 224 209 203 204 204 201 201 204 212 226 237 226 217 215 203 186 201 207 183 174 174 169 162 151 129 90 49 31 32 48 58 49 36 24 13 4 355 350
261 262 266 269 268 272 273 275 280 281 280 278 272 267 269 272 278 290 297 293 274 241 229 234 235 224 215 212 210 208 206 210 213 217 224 226 225 233 240 234 223 219 219 205 190 179 167 159 147 118 77 44 33 40 59 55 38 24 13 2 354 350 347
251 248 262 270 265 266 270 275 284 292 296 298 291 278 272 274 286 307 316 306 280 237 227 233 236 233 226 215 204 196 207 217 215 215 215 216 226 242 252 244 226 209 233 218 198 182 164 152 140 105 67 36 29 42 47 33 24 14 4 352 347 346 347
248 237 241 248 249 262 278 289 297 307 315 318 314 303 294 292 296 309 320 313 285 250 235 238 241 239 233 221 204 192 211 215 212 214 217 216 217 225 233 230 219 220 253 208 191 178 160 143 127 90 54 29 27 32 12 6 8 2 352 344 343 346 350
243 240 250 263 271 287 310 321 321 322 324 324 324 320 317 316 312 308 315 314 293 264 244 243 244 243 245 244 226 203 209 216 214 209 208 209 211 213 217 212 210 244 260 211 187 174 159 139 122 87 48 37 34 7 344 345 349 346 339 339 344 351 357
257 255 265 280 296 317 339 347 346 342 335 334 339 338 333 331 326 318 320 318 298 272 252 245 247 250 254 258 252 227 216 219 216 209 207 209 212 215 212 204 206 233 242 216 192 175 159 139 127 97 68 83 53 324 311 319 328 329 332 340 349 355 358
295 276 271 284 306 329 348 359 6 6 356 352 355 355 345 332 324 320 321 319 298 272 248 233 243 259 263 267 267 253 236 227 220 219 219 216 213 214 217 211 209 216 223 213 194 176 161 154 155 148 146 155 226 272 282 293 305 315 328 343 354 359 358
338 314 290 293 311 332 349 1 8 8 3 0 359 360 357 334 312 307 318 316 284 263 247 236 250 270 273 275 271 253 238 225 215 223 221 212 207 206 204 198 195 219 238 213 187 175 171 172 172 167 172 197 239 265 280 286 292 305 325 345 358 359 356
71 58 43 27 2 4 9 13 11 3 359 4 4 4 9 356 326 308 299 235 247 270 274 267 273 288 281 276 270 237 210 210 214 211 197 196 201 202 194 184 183 231 242 210 185 181 184 178 170 173 189 219 248 273 288 285 285 301 325 349 356 354 348
70 61 53 50 36 22 15 15 17 10 5 13 19 17 10 357 343 330 318 249 224 292 298 286 280 297 295 282 258 215 200 216 220 204 185 188 194 193 184 170 170 224 230 205 191 191 188 179 178 187 209 237 262 281 286 271 275 301 329 349 346 344 340
64 57 53 51 44 37 35 33 33 32 26 20 23 24 12 356 350 341 340 12 65 329 315 310 301 305 303 146 160 177 194 236 216 194 188 188 181 173 166 155 170 207 212 203 200 199 189 186 191 206 229 251 267 275 267 250 265 291 315 334 336 338 336
64 60 56 53 49 48 47 45 43 44 42 37 31 26 13 2 1 355 358 24 56 9 326 326 333 333 350 94 244 238 261 251 226 209 199 184 172 167 162 163 187 205 210 210 210 205 198 199 211 227 243 256 260 254 247 250 264 276 286 317 332 334 333
66 66 62 57 52 48 47 45 45 46 46 43 40 36 24 13 19 20 12 22 65 78 338 335 339 328 315 294 292 307 302 252 226 217 202 187 181 179 175 187 204 210 212 214 215 216 217 222 232 243 249 253 248 239 241 256 268 266 272 314 330 331 332
63 65 65 60 52 47 47 47 47 46 44 42 42 42 37 30 41 48 21 0 122 141 156 190 205 205 196 181 191 222 227 209 189 206 206 199 194 194 198 211 215 215 215 217 222 232 238 241 244 246 247 245 238 230 238 256 262 249 264 313 328 332 339
61 64 68 65 55 50 50 48 46 44 41 39 41 43 41 44 70 88 52 285 196 168 171 176 183 189 181 171 173 183 184 175 166 183 206 210 207 208 216 221 220 219 222 227 233 241 246 248 248 245 243 240 230 224 235 249 242 234 272 319 331 338 347
73 73 70 64 56 50 47 45 45 43 38 36 40 44 44 54 85 115 150 267 253 208 185 174 180 199 197 179 174 172 168 164 163 169 187 203 208 213 218 219 220 225 232 239 245 251 254 255 253 253 251 238 220 216 229 231 218 230 298 333 338 344 350
77 74 68 59 51 48 46 45 46 46 42 39 43 49 50 59 83 123 172 211 265 268 230 182 177 198 217 204 180 168 163 162 162 167 183 199 208 213 215 214 217 226 236 245 251 256 259 258 258 266 261 234 214 217 223 207 199 227 332 346 347 352 352
77 70 63 57 53 52 52 52 51 50 48 46 46 48 50 57 73 99 168 223 243 266 268 238 190 191 199 201 189 184 186 183 172 173 188 200 204 207 209 208 212 222 231 242 251 252 253 251 254 260 236 207 207 216 205 189 192 223 355 352 350 356 357
77 69 61 58 57 57 56 56 53 50 49 45 39 38 42 47 57 69 86 230 227 231 250 266 266 239 210 194 188 188 194 198 192 188 196 203 203 203 205 203 202 209 218 227 236 241 244 237 208 174 174 193 207 197 176 176 194 224 1 352 349 357 4
76 71 65 61 60 59 57 55 51 45 41 35 28 27 34 40 46 48 45 194 201 207 220 230 237 245 249 235 215 205 203 202 197 195 200 204 204 205 207 201 192 188 191 199 207 207 194 176 162 159 170 189 191 175 171 185 219 250 332 346 352 1 12